Regional Weather Roundup
Issued by NWS Wakefield, VA

Home | Current Version | Previous Version | Graphics & Text | Print | Product List | Glossary On
Versions: 1 2 3 4 5 6 7 8 9 10 11 12 13 14 15 16 17 18 19 20 21 22 23 24 25 26 27 28 29 30 31 32 33 34 35 36 37 38 39 40 41 42 43 44 45 46 47 48 49 50
000
ASUS41 KAKQ 012110
RWRAKQ

REGIONAL WEATHER ROUNDUP
NATIONAL WEATHER SERVICE WAKEFIELD VA
400 PM EST SUN FEB 01 2015

Note: "fair" indicates few or no clouds below 12,000 feet with no
significant weather and/or obstructions to visibility. * = Denotes
station may not report precipitation (e.g., rain,snow,etc.),
thunder or fog.

VAZ042-051-052>054-056-012200-
NORTHERN VIRGINIA

CITY           SKY/WX    TMP DP  RH WIND       PRES   REMARKS
WASH NATIONAL  CLOUDY    42  19  39 S5        30.12S
DULLES         CLOUDY    40  15  36 SE6       30.08F
FORT BELVOIR   PTSUNNY   41  17  36 E5        30.09F
QUANTICO       CLOUDY    39  26  59 SE8       30.10F
FREDERICKSBRG* CLOUDY    46  16  30 SE9       30.07F
STAFFORD*      CLOUDY    44  13  28 CALM      30.11F
WARRENTON      CLOUDY    46  22  39 SE3       30.05F
CULPEPER*      CLOUDY    45  19  36 CALM      30.07F
MANASSAS*      NOT AVBL
LEESBURG*      CLOUDY    41  19  42 SE6       30.07F
WINCHESTER     CLOUDY    41  16  36 S5        30.02F
FRONT ROYAL*   MOCLDY    41  21  45 CALM      30.00F
LURAY*         CLOUDY    45  19  36 SW10      30.00S
$$

VAZ048-049-060>072-079>083-012200-
CENTRAL AND SOUTH CENTRAL VIRGINIA

CITY           SKY/WX    TMP DP  RH WIND       PRES   REMARKS
RICHMOND       CLOUDY    48  20  32 SE9       30.09F
CHESTERFIELD*  FAIR      46  14  27 S10       30.11F
PETERSBURG*    CLOUDY    49  14  24 S7        30.11S
HANOVER        CLOUDY    46  17  31 SE6       30.09F
TAPPAHANNOCK*  CLOUDY    46  14  27 SE7       30.12F
QUINTON*       FAIR      46  20  35 S6        30.10F
CHARLOTTSVILLE CLOUDY    42  14  32 CALM      30.06S
GORDONSVILLE*  MOCLDY    44  12  27 S3        30.07R
ORANGE*        CLOUDY    45  12  26 SE5       30.07S
LOUISA*        CLOUDY    45  12  26 S3        30.06S
BUMPASS*       FAIR      44  16  31 SE3       30.07F
FARMVILLE*     CLOUDY    52  19  27 S5        30.05S
CREWE*         FAIR      50  19  28 SE8       30.06F
FORT PICKETT*  FAIR      49  19  30 SE7       30.07F
CHASE CITY*    FAIR      55  24  31 S5        30.07S
CLARKSVILLE*   FAIR      52  23  32 S10G16    30.07S
SOUTH HILL*    CLOUDY    53  21  29 S12G18    30.14F
LAWRENCEVILLE* FAIR      51  25  37 SE6       30.09F
EMPORIA*       CLOUDY    50  25  37 E7        30.12F
$$

VAZ088>098-012200-
SOUTHEAST VIRGINIA

CITY           SKY/WX    TMP DP  RH WIND       PRES   REMARKS
NORFOLK        PTSUNNY   47  22  37 S7        30.14F
VIRGINIA BEACH CLOUDY    45  26  47 SE7       30.15F
NORFOLK NAVAL  CLOUDY    50  21  32 S6        30.15F
WEST POINT*    PTSUNNY   46  26  45 SE7       30.13F
SALUDA*        FAIR      42  25  51 SE9       30.14F
NEWPORT NEWS   PTSUNNY   46  30  53 E7        30.13F
LANGLEY AFB    CLOUDY    43  30  62 E8        30.14F
FORT EUSTIS    CLOUDY    47  25  41 S8        30.11F
WILLIAMSBURG*    N/A     48  27  43 SE8       30.13F
HR EXEC AP*    FAIR      46  19  34 SE7       30.16F
FRANKLIN*      CLOUDY    48  21  35 SE8       30.13F
WAKEFIELD      CLOUDY    49  19  30 S5        30.12F
$$

VAZ020-022-025-037-045-012200-
WEST CENTRAL AND SOUTHWEST VIRGINIA

CITY           SKY/WX    TMP DP  RH WIND       PRES   REMARKS
STAUNTON*      CLOUDY    43  11  27 S8        30.01F
WAYNESBORO*    CLOUDY    39  13  34 SE9       30.00F
HOT SPRINGS VA CLOUDY    34  10  36 S14       29.91S WCI  25
LYNCHBURG      CLOUDY    47  21  35 S8        30.04F
DANVILLE       CLOUDY    54  18  24 S9        30.05F
SOUTH BOSTON*  FAIR      54  16  22 S9G20     30.06F
MARTINSVILLE   CLOUDY    53  22  30 S5        30.03F
ROANOKE        CLOUDY    50  19  29 S9        30.02F
BLACKSBURG     CLOUDY    45  19  35 S7        30.00F
DUBLIN*        CLOUDY    48  24  38 S10G16    29.96F
MARION*        CLOUDY    48  18  31 E6        29.93F
HILLSVILLE*    CLOUDY    45  27  49 S8G22     29.95F
RICHLANDS*     CLOUDY    48  21  34 S9G23     29.87F
WISE*          RAIN      43  30  61 S15G22    29.85F
ABINGDON*      LGT RAIN  53  27  36 W6        29.89F
$$

MDZ021>025-VAZ099-100-012200-
SOUTHERN MARYLAND AND THE DELMARVA PENINSULA

CITY           SKY/WX    TMP DP  RH WIND       PRES   REMARKS
PATUXENT RIVER CLOUDY    39  21  48 SE9       30.13F
BAY BRIDGE APT   N/A     37  18  44 S9        30.13R
LEONARDTOWN    CLOUDY    41  19  42 SE8       30.14S
DOVER          CLOUDY    37  27  67 E8        30.14F
GEORGETOWN     CLOUDY    41  20  43 SE9       30.14F
EASTON         CLOUDY    41  19  42 S8        30.16F
CAMBRIDGE      PTSUNNY   41  18  38 S9        30.14R
SALISBURY      CLOUDY    44  19  36 S8        30.15F
OCEAN CITY     CLOUDY    38  25  59 S7        30.17F
WALLOPS ISLAND CLOUDY    38  25  59 S9        30.17F
ACCOMACK*      PTSUNNY   39  25  56 SE9       30.16F
$$

NCZ012>017-030>032-012200-
NORTH CENTRAL AND EASTERN NORTH CAROLINA

CITY           SKY/WX    TMP DP  RH WIND       PRES   REMARKS
ROANOKE RAPIDS FAIR      52  25  35 S8        30.11F
RALEIGH        CLOUDY    53  22  29 SW10      30.12S
ELIZABETH CITY PTSUNNY   44  32  62 SE5       30.17F
AHOSKIE*       CLOUDY    54  24  31 S12       30.13F
EDENTON*       PTSUNNY   48  30  49 SE3       30.15F
CURRITUCK*     PTSUNNY   49  19  30 CALM      30.17F
KILL DEVIL HLS PTSUNNY   45  32  60 SE3       30.17S
MANTEO         PTSUNNY   46  28  49 SE9       30.18F
CAPE HATTERAS  PTSUNNY   52  38  58 SW9       30.19F
TARBORO*       FAIR      55  21  27 S7        30.14F
GOLDSBORO      PTSUNNY   58  29  34 CALM      30.12F
WASHINGTON     CLOUDY    54  19  26 S9        30.16F
GREENVILLE     CLOUDY    54  21  28 S9        30.16F
NEW BERN       PTSUNNY   59  30  33 S15G23    30.16F
WILMINGTON     SUNNY     60  40  47 S12       30.14F
$$

VAZ048-012200-
ELSEWHERE

CITY           SKY/WX    TMP DP  RH WIND       PRES   REMARKS
HARRISBURG PA  CLOUDY    36  24  62 SE8       30.07F
BALTIMORE      CLOUDY    37  19  48 CALM      30.11S
ANNAPOLIS      CLOUDY    38  18  44 S14G20    30.12F
ANDREWS AFB    PTSUNNY   41  17  37 SE8       30.09F
PHILADELPHIA   CLOUDY    39  25  57 E5        30.14F
HENDERSON NC   CLOUDY    53  14  21 S12G20    30.09S
GREENSBORO     CLOUDY    53  24  32 S10       30.03F
ROCKY MOUNT    CLOUDY    53  23  31 S7        30.13F
$$

VAZ100-012200-
MARINE

STATION/POSITION TIME  TEMP    WIND        PRES    WAVE   SWELL
                       AIR SEA DIR/SP/G            HT/PER HT/PER
                 (UTC) (F)     (DEG/KT/KT) (MB)    (FT/S) (FT/S)
BRANDYWINE LGT   2100   35 35  170/ 13/ 14 1021.5F
CAPE MAY NJ      2100   36 34              1021.0F
LEWES DE         2100   38 35  150/  7/ 11 1020.8F
15NM E FENWICK I 2100   38 40              1021.8F   1/11
OCEAN-CITY-INLET 2100   38 35  190/  7/ 10 1020.9F
WACHAPREAGUE VA  2100   39 34  150/  6/  8 1021.3F
THOMAS POINT MD  2100   37 35  170/ 15/ 16 1021.0F
GOOSES REEF MD   2100   36     VRB 16/ 19  1019.3F
COVE POINT MD    2100   36     180/ 14/ 16 1020.5R
SOLOMONS ISLAND  2100      37                N/A
BISHOPS HEAD MD  2100   38 34  170/ 10/ 11   N/A
PINEY POINT MD   2100          160/ 16/ 18   N/A
POTOMAC MD       2100   39     170/ 10/ 12 1019.8F
CAMBRIDGE MD     2100   40 33  180/  9/ 14 1020.3F
LEWISETTA VA     2100   41 35  160/  8/ 11 1019.9F
RAPPAHANNOCK LGT 2100          130/ 12/ 13 1021.5F
STINGRAY PT      2100   39     160/  8/ 10 1021.5F
YORK RVR RNG VA  2100   39     130/ 12/ 15 1020.2F
YORKTOWN VA      2100   40 39  110/ 11/ 12 1020.5S
JAMESTOWN VA     2100   43     130/  8/ 10   N/A
DOMINION TERM VA 2100   44     150/  6/  6 1020.6F
KIPTOPEKE VA     2100      43  140/  9/ 12   N/A
CHES BAY BRIDGE  2100   42 39  100/  7/ 12 1020.5F
CAPE HENRY VA    2100   40     140/ 11/ 14 1019.7F
CHESAPEAKE LGHT  2000   41     140/ 13/ 14 1022.6F
WILLOUBY STN VA  2100   47     160/  9/ 10 1021.0F
S CRANEY ISL VA  2100          160/  9/ 10 1020.7F
CAPE HENRY BUOY  2100      42                N/A     2/11
1ST LANDING BUOY 2100   40     130/ 12/ 14 1020.9F
CAPE CHARLES BUO 2100      40                N/A     2/11   2/11
OFFSHORE WE BUOY 2100      44                N/A     2/ 6   2/ 6
64NM E OF VA BCH 2100   45 47  200/  8/ 10 1021.7F   3/11   3/11
DUCK PIER NC     2100   42 40  140/  8/  9 1020.9F
44100 DUCK FRF   2100      43                N/A     3/ 7   2/12
44056 DUCK FRF   2100      41                N/A     2/ 7   2/11
OREGON INLET NC  2100   43 36  160/  7/  9 1022.1F
HATTERAS NC      2100   51 47  220/  6/  8 1022.6F



USA.gov is the U.S. government's official web portal to all federal, state and local government web resources and services.